Retour au catalogue

HULIANWANG DIGUI-99

ActifCommunicationsLEO
NORAD 66415·PAYLOAD·🇨🇳 China

Lancé Nov 10, 2025 depuis Wenchang Space Launch Site

Loading…

Prochains Passages (prochaines 24 heures)

TLE

FraisSource: Space-Track

Époque: Sep 14, 2026, 14:03 UTC

1 66415U 25258D   26257.58546576 -.00000079  00000-0  97996-4 0  9993
2 66415  50.0067 334.9397 0000204 109.2307 250.8587 13.29329999 41611

Suivez HULIANWANG DIGUI-99 en temps réel avec AllMySat

Download on the App Store